Capitol Logistics 333


KHRL
Valley International Airport
Harlingen, Texas, US
KAUS
Austin-Bergstrom International Airport
Austin, Texas, US

Activity Log

Date Flight Route Aircraft Duration
11/30/2018 CPX339 CRP HOOLR DXEEE1 B752 1h 01m

Route Details

Aircraft Information
Primary: Boeing 767-300BDSF
Backup: Not Available
Route Data
Distance: 273nm
Sched. Duration: 1h 00m
Avg. Duration: 1h 01m (+1m)
Times Flown: 1
Recm'd Route: CRP PCKIT
Planned Altitude: 28,000ft
Origin Wx: KHRL 191652Z 14019G27KT 10SM FEW030 OVC043 25/18 A3011 RMK AO2 PK WND 15027/1644 SLP196 T02500183
Dest. Wx: KAUS 191653Z 16010KT 10SM BKN012 OVC018 21/17 A3021 RMK AO2 SLP223 T02060172
Notes:

Financial History
Total Freight: 58,189lbs
Average Load: 58,189lbs/flt
Fuel Used: 8,263lbs
Avg. Fuel Used: 8,263lbs/flt
Fuel Expense: $5,206
Avg. Fuel Expense: $5,206
Avg. Fuel Cost: $0.63/lbs
Total Gross Income: $72,154
Pilot Pay: $149
Total Expenses: $7,845
Total Revenue: $58,861
Average Revenue: $72,154.40